Regional Weather Roundup
Issued by NWS

Home | Current Version | Previous Version | Graphics & Text | Print | Product List | Glossary On
Versions: 1 2 3 4 5 6 7 8 9 10 11 12 13 14 15 16 17 18 19 20 21 22 23 24 25 26 27 28 29 30 31 32 33 34 35 36 37 38 39 40 41 42 43 44 45 46 47 48 49 50
000
ASUS43 KDMX 270107
RWRIA

WEATHER ROUNDUP FOR IOWA
NATIONAL WEATHER SERVICE DES MOINES IA
800 PM CDT THU MAR 26 2015

NOTE: "FAIR" INDICATES FEW OR NO CLOUDS BELOW 12,000 FEET WITH NO
SIGNIFICANT WEATHER AND/OR OBSTRUCTIONS TO VISIBILITY.

* - THESE STATIONS ARE NOT NWS STATIONS...THUS NOT UNDER NWS
QUALITY CONTROL.  THEY ALSO DO NOT REPORT WEATHER SUCH
AS PRECIPITATION OR FOG.

IAZ001>003-012>014-020>022-031>034-043>046-270200-
   NORTHWEST IOWA

CITY           SKY/WX    TMP DP  RH WIND       PRES   REMARKS
CARROLL *      CLOUDY    36  25  64 N12       30.14R WCI  27
CHEROKEE *     CLOUDY    36  23  60 N15       30.16R WCI  26
DENISON *      CLOUDY    36  34  93 NW6       30.13S WCI  31
LE MARS *      CLOUDY    37  25  60 N8        30.17R WCI  31
ORANGE CITY *  CLOUDY    36  21  55 N7        30.16R WCI  30
SHELDON *      MOCLDY    32  21  64 N12       30.15R WCI  23
SIOUX CITY     CLOUDY    38  29  70 W8        30.17R WCI  32
SPENCER        PTCLDY    32  20  61 N14       30.16R WCI  22
STORM LAKE *   CLOUDY    34  23  64 N13G18    30.15R WCI  25
$$

IAZ055>058-069>071-079>083-090>094-270200-
   SOUTHWEST IOWA

CITY           SKY/WX    TMP DP  RH WIND       PRES   REMARKS
ATLANTIC *     MIX PCPN  36  32  87 N9        30.15R WCI  29
AUDUBON *      LGT RAIN  34  30  86 NW5       30.15R WCI  30
CLARINDA *     LGT RAIN  37  34  87 N12       30.16R WCI  30
COUNCIL BLFS * FLURRIES  34  34 100 N7        30.16R WCI  28
CRESTON *      LGT SNOW  34  34 100 NW9       30.13R WCI  26
HARLAN  *      MIX PCPN  34  34 100 NW9       30.19R WCI  26
LAMONI         CLOUDY    42  26  53 N12       30.09R
RED OAK *      LGT RAIN  34  34 100 N12       30.16R WCI  25
SHENANDOAH *   MOCLDY    36  36 100 N14       30.16R WCI  27
$$

IAZ047>049-059>061-072>074-084-270200-
   CENTRAL IOWA

CITY           SKY/WX    TMP DP  RH WIND       PRES   REMARKS
AMES           CLOUDY    37  23  56 N12       30.12R WCI  29
ANKENY *       CLOUDY    37  25  60 N13       30.12R WCI  29
CHARITON *     MOCLDY    41  25  52 NW10      30.10R
DES MOINES     CLOUDY    40  24  53 N14       30.12R WCI  32
GRINNELL*      CLOUDY    36  25  64 N12       30.10R WCI  27
KNOXVILLE *    CLOUDY    39  23  52 N14       30.09R WCI  31
MARSHALLTOWN   CLOUDY    35  24  64 N14       30.10R WCI  26
PELLA *        CLOUDY    39  28  65 N13       30.12R WCI  32
PERRY *        CLOUDY    37  27  65 N12       30.14R WCI  30
$$

IAZ004>006-015-016-023>025-035-036-270200-
   NORTH CENTRAL IOWA

CITY           SKY/WX    TMP DP  RH WIND       PRES   REMARKS
ALGONA *       CLOUDY    32  21  64 N13G23    30.16R WCI  22
CLARION *      CLOUDY    32  27  80 N12       30.13R WCI  23
ESTHERVILLE    CLOUDY    30  19  63 N18       30.16R WCI  18
FORT DODGE *   CLOUDY    34  19  55 N8        30.15R WCI  27
MASON CITY     CLOUDY    30  20  66 N17       30.14R WCI  18
FOREST CITY *  CLOUDY    30  21  69 N10       30.13R WCI  21
IOWA FALLS *   CLOUDY    34  25  69 N13G18    30.13R WCI  25
$$

IAZ007>011-017>019-026>030-037>042-050>054-066-270200-
   NORTHEAST IOWA

CITY           SKY/WX    TMP DP  RH WIND       PRES   REMARKS
CEDAR RAPIDS   MOCLDY    32  23  69 N12       30.08R WCI  23
CHARLES CITY * CLEAR     30  23  74 NW10G16   30.12R WCI  21
CLINTON *      CLEAR     30  21  69 N13       30.09S WCI  20
DECORAH *      CLOUDY    30  21  69 VRB6      30.08R WCI  24
DUBUQUE        CLEAR     28  18  66 N9        30.06R WCI  19
MONTICELLO *   CLEAR     30  23  74 N9        30.09R WCI  22
OELWEIN *      CLEAR     30  21  69 NW12      30.11R WCI  21
WATERLOO       CLOUDY    32  22  66 N10       30.11R WCI  24
$$

IAZ064-065-067-068-078-270200-
   EAST CENTRAL IOWA

CITY           SKY/WX    TMP DP  RH WIND       PRES   REMARKS
DAVENPORT      CLEAR     32  21  64 N13       30.07R WCI  22
IOWA CITY      MOCLDY    36  23  59 N16G23    30.10R WCI  26
MT. PLEASANT * PTCLDY    37  23  56 N10       30.07S WCI  30
MUSCATINE *    CLOUDY    37  25  60 N13       30.09R WCI  29
QUAD CITIES    CLEAR     36  21  54 N14       30.06R WCI  27
$$

IAZ062-063-075>077-085>089-095>099-270200-
   SOUTHEAST IOWA

CITY           SKY/WX    TMP DP  RH WIND       PRES   REMARKS
BURLINGTON     PTCLDY    41  23  48 N9        30.06R
FAIRFIELD *    MOCLDY    39  23  52 N12       30.08R WCI  32
FORT MADISON * PTCLDY    39  25  56 N9        30.07R WCI  33
KEOKUK *       CLOUDY    43  25  49 NW8       30.06R
OSKALOOSA *    CLOUDY    37  25  60 NW12      30.10R WCI  30
CENTERVILLE *  MOCLDY    39  27  60 N9        30.09S WCI  33
OTTUMWA        CLOUDY    38  24  57 N14       30.09R WCI  30
WASHINGTON *   CLOUDY    39  23  52 N10       30.08R WCI  32
$$

ABBREVIATIONS USED IN REMARKS
   TC - TEMPERATURES IN CELSIUS
  WCI - WIND CHILL INDEX
   HX - HEAT INDEX
  VSB - VISIBILITY
$$




USA.gov is the U.S. government's official web portal to all federal, state and local government web resources and services.